Home   Weather   Longueuil   Past weeks

Flag for Canada Past Weather in Longueuil, Quebec, Canada — Yesterday and Last 2 Weeks

Now
58 °F

Cool.


Feels Like: 58 °F
Forecast: 53 / 63 °F
Wind: 2 mph from Northeast

Location: Mc Tavish

Current Time: Oct 1, 2016 at 11:34:05 AM

Latest Report: Oct 1, 2016 at 11:00 AM


Visibility: N/A

Pressure: 30.33 "Hg

Humidity: 67%

Dew Point: 47 °F

Location of LongueuilLocation

Past Weather in Longueuil — Graph

°F

Longueuil Temperature Yesterday

Maximum temperature yesterday: 64 °F (at 3:00 PM)
Minimum temperature yesterday: 47 °F (at 7:00 AM)
Average temperature yesterday: 56 °F

High & Low Weather Summary for the Past Weeks

 TemperatureHumidityPressure
High80 °F (Sep 18, 2:00 PM)99% (Sep 20, 2:00 AM)30.53 "Hg (Sep 20, 2:00 AM)
Low45 °F (Sep 25, 7:00 AM)30% (Sep 25, 3:00 PM)29.80 "Hg (Sep 27, 4:00 AM)
Average61 °F68%30.13 "Hg
* Reported Sep 16 10:00 AM — Oct 1 10:00 AM, Longueuil, Weather by CustomWeather, © 2016

Note: Actual official high and low records may vary slightly from our data, if they occured in-between our weather recording intervals... More about our weather records

Advertising

Longueuil Weather History for the Previous 24 Hours

Scroll right to see more
 ConditionsComfort  
Time TempWeatherWind HumidityBarometerVisibility
10:00 AM
Sat, Oct 1
56 °FCool.2 mph74%30.34 "HgN/A
9:00 AM54 °FCool.2 mph81%30.34 "HgN/A
8:00 AM54 °FCool.2 mph80%30.34 "HgN/A
7:00 AM54 °FCool.2 mph82%30.34 "HgN/A
6:00 AM53 °FCool.2 mph87%30.34 "HgN/A
5:00 AM55 °FCool.3 mph82%30.34 "HgN/A
4:00 AM55 °FCool.2 mph81%30.34 "HgN/A
3:00 AM56 °FCool.2 mph78%30.35 "HgN/A
2:00 AM56 °FCool.3 mph77%30.36 "HgN/A
1:00 AM58 °FCool.2 mph68%30.37 "HgN/A
12:00 AM58 °FCool.3 mph70%30.38 "HgN/A
11:00 PM
Fri, Sep 30
59 °FCool.3 mph69%30.39 "HgN/A
10:00 PM60 °FCool.2 mph63%30.40 "HgN/A
9:00 PM58 °FCool.5 mph66%30.40 "HgN/A
8:00 PM61 °FRefreshingly cool.3 mph60%30.41 "HgN/A
7:00 PM61 °FRefreshingly cool.5 mph59%30.41 "HgN/A
6:00 PM62 °FRefreshingly cool.6 mph56%30.41 "HgN/A
5:00 PM63 °FMild.6 mph52%30.41 "HgN/A
4:00 PM64 °FMild.6 mph48%30.41 "HgN/A
3:00 PM64 °FMild.5 mph45%30.42 "HgN/A
2:00 PM63 °FMild.3 mph46%30.45 "HgN/A
1:00 PM60 °FRefreshingly cool.6 mph54%30.47 "HgN/A
12:00 PM59 °FRefreshingly cool.5 mph60%30.49 "HgN/A
11:00 AM56 °FCool.5 mph65%30.50 "HgN/A
Weather by CustomWeather, © 2016

See weather overviewHow to use our weather pages